Regional Weather Roundup
Issued by NWS

Home | Current Version | Previous Version | Text Only | Print | Product List | Glossary On
Versions: 1 2 3 4 5 6 7 8 9 10 11 12 13 14 15 16 17 18 19 20 21 22 23 24 25 26 27 28 29 30 31 32 33 34 35 36 37 38 39 40 41 42 43 44 45 46 47 48 49 50
000
ASUS43 KDTX 240210
RWRMI
MICHIGAN HOURLY REGIONAL WEATHER ROUNDUP
NATIONAL WEATHER SERVICE DETROIT/PONTIAC MI
1000 PM EDT THU MAR 23 2017

NOTE: "FAIR" INDICATES FEW OR NO CLOUDS BELOW 12,000 FEET WITH NO
SIGNIFICANT WEATHER AND/OR OBSTRUCTION TO VISIBILITY.

MIZ047>049-052>055-059>063-066>070-074>076-081>083-240300-
SOUTHEAST LOWER MICHIGAN

CITY           SKY/WX    TMP DP  RH WIND       PRES   REMARKS
ADRIAN         MOCLDY    35  28  75 SE7       30.21F WCI  29
ALMA           CLOUDY    39  21  47 SE6       30.16R WCI  35
ANN ARBOR      MOCLDY    35  25  66 E7        30.21F WCI  29
BAD AXE        CLOUDY    36  14  41 SE10G20   30.19F WCI  28
CARO           CLOUDY    36  17  46 SE9       30.18F WCI  29
DETROIT CITY   CLOUDY    35  25  66 SE10      30.23F WCI  27
DETROIT        CLOUDY    38  22  52 SE7       30.25F WCI  33
FLINT          CLOUDY    40  18  41 S12       30.19F WCI  33
GROSSE ILE     CLOUDY    36  26  68 E7        30.22F WCI  30
HILLSDALE      CLOUDY    36  27  69 SE9       30.16F WCI  29
HOWELL         CLOUDY    38  17  41 SE12G17   30.18S WCI  31

CITY           SKY/WX    TMP DP  RH WIND       PRES   REMARKS
JACKSON        CLOUDY    38  23  55 SE12      30.17F WCI  30
LAMBERTVILLE   CLOUDY    36  29  78 E3        30.22F
LANSING        CLOUDY    40  20  44 S12       30.17S WCI  33
LAPEER         CLOUDY    37  18  47 SE8       30.21S WCI  30
MASON          CLOUDY    38  25  60 SE10      30.16S WCI  30
MONROE         CLOUDY    35  31  84 E7        30.23S WCI  29
MT. CLEMENS    CLOUDY    35  25  67 SE10      30.22F WCI  27
PONTIAC        CLOUDY    37  19  48 SE10G22   30.20F WCI  30
PORT HOPE        N/A     36  19  50 SE15G22   30.18F WCI  27
PORT HURON     PTCLDY    34  18  51 SE8       30.23F WCI  27
TRI CITIES     CLOUDY    39  18  42 SE13      30.17F WCI  31
MIDLAND        CLOUDY    42   8  25 SE9G20    30.15S
TROY           CLOUDY    37  20  50 SE7       30.24F WCI  31
SAGINAW HB     CLOUDY    37  12  35 SE10      30.17S WCI  30
$$
MIZ043>046-050>051-056>058-064>065-071>073-077>080-240300-
SOUTHWEST LOWER MICHIGAN

CITY           SKY/WX    TMP DP  RH WIND       PRES   REMARKS
BATTLE CREEK   CLOUDY    46  20  35 S13G22    30.14S
BENTON HARBOR  CLOUDY    45  28  51 SE15      30.09F
BIG RAPIDS     LGT RAIN  40  14  34 S6        30.13R
COLDWATER      CLOUDY    46  20  36 S9G16     30.15S
FREMONT        CLOUDY    44  14  30 S7        30.11R
HOLLAND        CLOUDY    45  23  42 S12       30.12R
GRAND RAPIDS   CLOUDY    45  20  36 S14       30.12R
IONIA          CLOUDY    41  24  51 SE12      30.14R
KALAMAZOO      CLOUDY    47  20  34 S10G20    30.13S
LUDINGTON      LGT RAIN  40  24  52 S5        30.11R
MARSHALL       CLOUDY    45  18  33 SE9       30.14F
MOUNT PLEASANT CLOUDY    40  16  37 S9        30.16R WCI  34
MUSKEGON       RAIN      42  28  57 SE9       30.12R
SOUTH HAVEN    LGT RAIN  44  27  51 SE8       30.09S
$$
MIZ016>042-240300-
NORTHERN LOWER MICHIGAN

CITY           SKY/WX    TMP DP  RH WIND       PRES   REMARKS
ALPENA         CLOUDY    36  21  54 SE14      30.14F WCI  27
BEAVER ISLAND  DRIZZLE   34  26  71 SE6       30.11R WCI  29
BELLAIRE       FLURRIES  39  17  41 S6        30.13R WCI  35
CADILLAC       LGT RAIN  38  16  40 S13       30.07F WCI  30
CHARLEVOIX     LGT RAIN  38  18  43 S3        30.17R
FRANKFORT      CLOUDY    41  13  31 S7        30.10R
GAYLORD        CLOUDY    37  13  37 S12       30.10R WCI  29
GRAYLING       CLOUDY    37  12  35 SE10      30.11R WCI  30
HARBOR SPRINGS RAIN      37  17  45 CALM      30.14R
HOUGHTON LAKE  CLOUDY    38  12  34 S12G18    30.13R WCI  30
MANISTEE       CLOUDY    42  13  30 SE5       30.09R
OSCODA         CLOUDY    37  22  55 SE12G17   30.17F WCI  29
PELLSTON       LGT RAIN  36  17  46 S6        30.14R WCI  31
ROGERS CITY    CLOUDY    36  21  55 S13G21    30.14S WCI  27
TRAVERSE CITY  CLOUDY    41  16  36 VRB3      30.12R
$$
MIZ007>008-015-240300-
EASTERN UPPER MICHIGAN

CITY           SKY/WX    TMP DP  RH WIND       PRES   REMARKS
KINROSS        LGT RAIN  33  22  63 S8        30.15R WCI  26
MACKINAC ISLAN FLURRIES  35  17  48 SE6       30.14R WCI  30
NEWBERRY       CLOUDY    32  26  77 SE8       30.08F WCI  25
S. S. MARIE    CLOUDY    34  24  67 SE7       30.14R WCI  28
MUNISING         N/A     33  27  78 S5        30.07R WCI  29
$$
MIZ004>006-011>014-085-240300-
CENTRAL UPPER MICHIGAN

CITY           SKY/WX    TMP DP  RH WIND       PRES   REMARKS
MANISTIQUE     MIX PCPN  32  30  93 SE13      30.08R WCI  22
ESCANABA       LGT RAIN  34  29  82 SE8       30.03F WCI  27
MENOMINEE        N/A    N/A N/A N/A MISG        N/A
SAWYER-GWINN   LGT RAIN  30  28  93 S13       30.01R WCI  20
$$
MIZ001>003-009>011-084-240300-
WESTERN UPPER MICHIGAN

CITY           SKY/WX    TMP DP  RH WIND       PRES   REMARKS
IRON MOUNTAIN  CLOUDY    32  25  75 SE7       29.95F WCI  26
HOUGHTON       CLOUDY    32  28  85 SE7       29.91F WCI  26
COPPER HARBOR    N/A     33  29  85 SW16G31   29.93F WCI  23
IRONWOOD       LGT RAIN  36  26  67 SW3       29.91R
$$

ABBREVIATIONS USED IN REMARKS
   TC - TEMPERATURE IN CELSIUS
  WCI - WIND CHILL INDEX
   HX - HEAT INDEX
  VSB - VISIBILITY




USA.gov is the U.S. government's official web portal to all federal, state and local government web resources and services.